Weather in Gartsevo

Russia / Bryansk Oblast     52°44′28″N   32°59′41″E
temp.,
°C
wind,
m/s
gust,
m/s
humid.,
%
clouds,
%
prec.,
mm/h
press.,
hPa
HPBL,
m
14 april, wed
wed1400:00+11s1189100 0.1 101821
03:00+10s279627 0.6 1018239
06:00+8s3595100 0.0 101896
09:00+10sse4782100 0.0 1018381
12:00+14sse4566100 0.1 10171202
15:00+15s4553100 0.3 10161672
18:00+14sse2359100 0.1 1015452
21:00+11ese2272100 0.1 101629
15 april, thu
thu1500:00+11ese2276100 0.1 101516
03:00+10n1177100 0.2 101415
06:00+9wsw1195100 2.6 101448
09:00+9n2296100 6.6 1014108
12:00+12e5576100 0.9 1013788
15:00+12e5677100 1.5 1013782
18:00+11ene5785100 0.2 1012457
21:00+9ene4993100 0.3 1012244
16 april, fri
fri1600:00+9ene349225 0.2 101291
03:00+8ene4893100 0.2 1012217
06:00+8e4893100 0.1 1012303
09:00+9e469032 0.3 1013394
12:00+12ese5765100 0.9 10131366
15:00+13se4662100 1.7 10141038
18:00+12sse466755 0.9 1014794
21:00+7sse22845 0.9 101623
17 april, sat
sat1700:00+6e33845 0.0 101734
03:00+5ese359125 0.0 101889
06:00+4ese3495100 0.0 102084
09:00+8se127099 0.0 1020281
12:00+10ese4665100 0.0 10211202
15:00+11ene4567100 0.3 1022991
18:00+10ene3375100 0.1 1022431
21:00+6se339099 0.1 102361
18 april, sun
sun1800:00+5ssw118499 0.0 102410
03:00+4sse11879 0.0 102410
06:00+4sse11876 0.0 102510
09:00+8e117173 0.0 1026302
12:00+11ene346975 0.0 1026728
15:00+13e687199 0.4 10261190
18:00+13e5971100 0.3 1025653
21:00+10e3980100 0.3 1026248